Back to catalog

COSMOS 516

AliveMilitaryLEO
NORAD 6154·PAYLOAD·🇷🇺 Russia

Launched Aug 21, 1972 from Baikonur Cosmodrome

Loading…

Next Passes (next 24 hours)

TLE

FreshSource: Space-Track

Epoch: Sep 14, 2026, 15:00 UTC

1 06154U 72066A   26257.62507528 -.00000054  00000-0  34457-4 0  9991
2 06154  64.8119 319.4497 0054504  62.2183 298.4383 13.77815144720247

Track COSMOS 516 in real time with AllMySat

Download on the App Store